{"data":{"norad_id":62708,"epoch":"2026-09-22T10:43:05.891808Z","epoch_age_seconds":152379,"freshness":"FRESH","line1":"1 62708U 25009DD  26265.44659597  .00002984  00000+0  25542-3 0  9992","line2":"2 62708  97.7048 344.4899 0001490 109.5011 250.6372 14.98342208 92021","mean_motion":14.98342208,"eccentricity":0.000149,"inclination_deg":97.7048,"raan_deg":344.4899,"arg_perigee_deg":109.5011,"mean_anomaly_deg":250.6372,"bstar":0.00025542,"rev_number":9202,"period_min":96.106216077442,"perigee_km":570.98256585208,"apogee_km":573.05371208349,"semimajor_km":6950.1551389678,"source":"CELESTRAK","updated_at":"2026-09-23T09:00:21.587775Z"}}